{"data":{"norad_id":62175,"intl_designator":"2024-225N","name":"STARLINK-32534","alt_names":[],"object_type":"PAYLOAD","status":"ACTIVE","operator":null,"country":"US","launch_date":"2024-11-30","launch_site_code":"AFWTR","launch_vehicle":null,"mission":null,"orbit_class":"UNKNOWN","rcs_meters":null,"size_class":null,"mass_kg":null,"dimensions":null,"purposes":["comms"],"wikipedia_slug":null,"has_3d_model":false,"image_url":null,"decayed_at":null,"tle_current":{"epoch":"2026-05-24T22:42:36.552960Z","epoch_age_seconds":86672,"freshness":"FRESH","line1":"1 62175U 24225N   26144.94625640  .00003018  00000+0  26058-3 0  9994","line2":"2 62175  70.0014 332.3418 0002661 266.7221  93.3633 14.98337921 81294","mean_motion":14.98337921,"eccentricity":0.0002661,"inclination_deg":70.0014,"raan_deg":332.3418,"arg_perigee_deg":266.7221,"mean_anomaly_deg":93.3633,"bstar":0.00026058,"rev_number":8129,"period_min":96.106491053696,"perigee_km":570.18195620305,"apogee_km":573.88083582341,"semimajor_km":6950.1683960132,"source":"CELESTRAK","updated_at":"2026-05-25T13:38:19.603036Z"}}}